Appleton, MN

4:34 AM CST on December 09, 2019 (GMT -0600)
Appleton Municipal

Weather History for KAQP - November, 2019

Change the Weather History Date:

Tuesday, November 12, 2019

  Actual Average Record
Temperature  
Mean Temperature 12 °F -  
Max Temperature 24 °F 39 °F 64 °F (1999)
Min Temperature 1 °F 22 °F 3 °F (1996)
Degree Days  
Heating Degree Days 52    
Moisture  
Dew Point 5 °F    
Average Humidity 67    
Maximum Humidity 85    
Minimum Humidity 50    
Precipitation  
Precipitation 0.00 in - - ()
Sea Level Pressure  
Sea Level Pressure 30.22 in    
Wind  
Wind Speed 6 mph ()    
Max Wind Speed 22 mph    
Max Gust Speed 31 mph    
Visibility 10.0 miles    
Events      
Averages and records for this station are not official NWS values.
T = Trace of Precipitation, MM = Missing Value Source: Averaged Metar Reports

Daily Weather History Graph

Daily Weather History Graph

Search for Another Location

Airport or City:

Astronomy

Nov. 12, 2019 Rise Set
Actual Time 7:17 AM CST 4:57 PM CST
Civil Twilight 6:46 AM CST 5:29 PM CST
Nautical Twilight 6:10 AM CST 6:04 PM CST
Astronomical Twilight 5:36 AM CST 6:39 PM CST
Moon 5:26 PM CST (11/12) 7:08 AM CST (11/12)
Length of Visible Light 10h 43m
Length of Day
9h 39m
Full, 100% of the Moon is Illuminated
Nov 12
Full
Nov 19
Last Quarter
Nov 26
New
Dec 4
First Quarter
Dec 11
Full

Hourly Weather History & Observations

Time (CST) Temp. Windchill Dew Point Humidity Pressure Visibility Wind Dir Wind Speed Gust Speed Precip Events Conditions
12:11 AM 1.4 °F - -4.0 °F 78% 30.61 in 10.0 mi Calm Calm - N/A   Clear
12:31 AM 3.2 °F - -2.2 °F 78% 30.60 in 10.0 mi Calm Calm - N/A   Clear
12:51 AM 3.2 °F - -2.2 °F 78% 30.59 in 10.0 mi Calm Calm - N/A   Clear
1:10 AM 3.2 °F - -2.2 °F 78% 30.60 in 10.0 mi Calm Calm - N/A   Clear
1:31 AM 3.2 °F - -0.4 °F 85% 30.59 in 10.0 mi Calm Calm - N/A   Clear
1:50 AM 3.2 °F - -0.4 °F 85% 30.59 in 10.0 mi Calm Calm - N/A   Clear
2:11 AM 3.2 °F - -0.4 °F 85% 30.58 in 10.0 mi Calm Calm - N/A   Clear
2:31 AM 3.2 °F - -0.4 °F 85% 30.58 in 10.0 mi Calm Calm - N/A   Clear
2:51 AM 3.2 °F - -0.4 °F 85% 30.57 in 10.0 mi Calm Calm - N/A   Clear
3:30 AM 3.2 °F - -2.2 °F 78% 30.54 in 10.0 mi Calm Calm - N/A   Clear
3:51 AM 3.2 °F - -2.2 °F 78% 30.53 in 10.0 mi Calm Calm - N/A   Clear
4:11 AM 3.2 °F - -2.2 °F 78% 30.52 in 10.0 mi Calm Calm - N/A   Clear
4:31 AM 3.2 °F - -2.2 °F 78% 30.52 in 10.0 mi Calm Calm - N/A   Clear
4:50 AM 3.2 °F - -2.2 °F 78% 30.51 in 10.0 mi Calm Calm - N/A   Clear
5:10 AM 3.2 °F - -2.2 °F 78% 30.50 in 10.0 mi Calm Calm - N/A   Clear
5:31 AM 3.2 °F - -0.4 °F 85% 30.49 in 10.0 mi Calm Calm - N/A   Clear
5:51 AM 3.2 °F - -0.4 °F 85% 30.47 in 10.0 mi Calm Calm - N/A   Clear
6:10 AM 3.2 °F - -0.4 °F 85% 30.47 in 10.0 mi Calm Calm - N/A   Clear
6:31 AM 5.0 °F - -0.4 °F 78% 30.47 in 10.0 mi Calm Calm - N/A   Clear
6:50 AM 5.0 °F -6.9 °F -0.4 °F 78% 30.45 in 10.0 mi South 6.9 mph - N/A   Clear
7:11 AM 5.0 °F - -0.4 °F 78% 30.44 in 10.0 mi Calm Calm - N/A   Clear
7:30 AM 6.8 °F -0.1 °F -0.4 °F 72% 30.43 in 10.0 mi South 3.5 mph - N/A   Clear
7:50 AM 6.8 °F -7.8 °F -0.4 °F 72% 30.41 in 10.0 mi SSE 10.4 mph - N/A   Clear
8:11 AM 8.6 °F -5.5 °F 1.4 °F 73% 30.40 in 10.0 mi SSE 10.4 mph - N/A   Clear
8:30 AM 8.6 °F -5.5 °F 1.4 °F 73% 30.40 in 10.0 mi South 10.4 mph 16.1 mph N/A   Clear
8:51 AM 10.4 °F -3.3 °F 3.2 °F 73% 30.38 in 10.0 mi South 10.4 mph 18.4 mph N/A   Clear
9:10 AM 12.2 °F -1.0 °F 3.2 °F 67% 30.38 in 10.0 mi South 10.4 mph 19.6 mph N/A   Clear
9:31 AM 12.2 °F -3.1 °F 3.2 °F 67% 30.35 in 10.0 mi South 13.8 mph 19.6 mph N/A   Clear
9:51 AM 12.2 °F -3.1 °F 3.2 °F 67% 30.33 in 10.0 mi SSE 13.8 mph 21.9 mph N/A   Clear
10:11 AM 14.0 °F -1.4 °F 5.0 °F 67% 30.32 in 10.0 mi South 15.0 mph 21.9 mph N/A   Clear
10:31 AM 15.8 °F 1.4 °F 5.0 °F 62% 30.30 in 10.0 mi SSE 13.8 mph 19.6 mph N/A   Clear
10:51 AM 17.6 °F 3.7 °F 5.0 °F 58% 30.29 in 10.0 mi SSE 13.8 mph 21.9 mph N/A   Clear
11:10 AM 19.4 °F 6.6 °F 6.8 °F 58% 30.27 in 10.0 mi SSE 12.7 mph 25.3 mph N/A   Clear
11:30 AM 19.4 °F 4.5 °F 6.8 °F 58% 30.25 in 10.0 mi SSE 17.3 mph 25.3 mph N/A   Clear
11:50 AM 19.4 °F 5.5 °F 6.8 °F 58% 30.23 in 10.0 mi SSE 15.0 mph 23.0 mph N/A   Clear
12:10 PM 19.4 °F 4.5 °F 5.0 °F 54% 30.22 in 10.0 mi South 17.3 mph 24.2 mph N/A   Clear
12:31 PM 21.2 °F 6.8 °F 5.0 °F 50% 30.19 in 10.0 mi SSE 17.3 mph 26.5 mph N/A   Clear
12:51 PM 23.0 °F 9.6 °F 6.8 °F 50% 30.18 in 10.0 mi SSE 16.1 mph 31.1 mph N/A   Clear
1:11 PM 21.2 °F 6.8 °F 6.8 °F 54% 30.16 in 10.0 mi SSE 17.3 mph 27.6 mph N/A   Clear
1:30 PM 21.2 °F 5.6 °F 6.8 °F 54% 30.13 in 10.0 mi SSE 20.7 mph 27.6 mph N/A   Clear
1:51 PM 21.2 °F 6.0 °F 6.8 °F 54% 30.11 in 10.0 mi SSE 19.6 mph 28.8 mph N/A   Clear
2:11 PM 21.2 °F 5.6 °F 6.8 °F 54% 30.09 in 10.0 mi SSE 20.7 mph 28.8 mph N/A   Clear
2:31 PM 21.2 °F 5.6 °F 6.8 °F 54% 30.08 in 10.0 mi SSE 20.7 mph 27.6 mph N/A   Clear
2:50 PM 21.2 °F 6.8 °F 6.8 °F 54% 30.09 in 10.0 mi SSE 17.3 mph 26.5 mph N/A   Clear
3:11 PM 23.0 °F 9.2 °F 8.6 °F 54% 30.07 in 10.0 mi SSE 17.3 mph 28.8 mph N/A   Clear
3:31 PM 23.0 °F 9.2 °F 8.6 °F 54% 30.06 in 10.0 mi South 17.3 mph 25.3 mph N/A   Clear
3:51 PM 23.0 °F 9.6 °F 10.4 °F 59% 30.03 in 10.0 mi SSE 16.1 mph 28.8 mph N/A   Clear
4:10 PM 24.8 °F 10.0 °F 10.4 °F 54% 30.03 in 10.0 mi South 21.9 mph 31.1 mph N/A   Clear
4:30 PM 23.0 °F 7.6 °F 8.6 °F 54% 30.02 in 10.0 mi SSE 21.9 mph 25.3 mph N/A   Clear
4:51 PM 23.0 °F 7.6 °F 10.4 °F 59% 30.00 in 10.0 mi South 21.9 mph 29.9 mph N/A   Clear
5:11 PM 23.0 °F 10.1 °F 10.4 °F 59% 30.00 in 10.0 mi SSE 15.0 mph 24.2 mph N/A   Clear
5:31 PM 23.0 °F 11.7 °F 10.4 °F 59% 30.00 in 10.0 mi SSE 11.5 mph 20.7 mph N/A   Scattered Clouds
5:50 PM 23.0 °F 10.6 °F 10.4 °F 59% 29.99 in 10.0 mi SSE 13.8 mph 20.7 mph N/A   Clear
6:11 PM 23.0 °F 9.6 °F 10.4 °F 59% 29.99 in 10.0 mi SSE 16.1 mph 23.0 mph N/A   Clear
6:31 PM 23.0 °F 11.7 °F 12.2 °F 63% 29.99 in 10.0 mi SSE 11.5 mph 18.4 mph N/A   Clear
6:50 PM 23.0 °F 10.6 °F 12.2 °F 63% 29.98 in 10.0 mi SSE 13.8 mph 19.6 mph N/A   Clear
7:11 PM 23.0 °F 11.1 °F 12.2 °F 63% 29.96 in 10.0 mi SSE 12.7 mph 17.3 mph N/A   Clear
7:30 PM 23.0 °F 12.4 °F 12.2 °F 63% 29.96 in 10.0 mi SSE 10.4 mph 17.3 mph N/A   Clear
7:51 PM 23.0 °F 10.1 °F 12.2 °F 63% 29.93 in 10.0 mi SSE 15.0 mph 23.0 mph N/A   Clear
8:10 PM 23.0 °F 11.1 °F 12.2 °F 63% 29.92 in 10.0 mi SSE 12.7 mph 20.7 mph N/A   Clear
8:30 PM 23.0 °F 12.4 °F 12.2 °F 63% 29.92 in 10.0 mi SSE 10.4 mph 18.4 mph N/A   Scattered Clouds
8:51 PM 24.8 °F 15.3 °F 12.2 °F 59% 29.92 in 10.0 mi SSE 9.2 mph 16.1 mph N/A   Scattered Clouds
9:11 PM 24.8 °F 14.6 °F 12.2 °F 59% 29.91 in 10.0 mi SSE 10.4 mph - N/A   Scattered Clouds
9:31 PM 24.8 °F 16.1 °F 12.2 °F 59% 29.91 in 10.0 mi SE 8.1 mph - N/A   Clear
9:51 PM 23.0 °F 11.7 °F 12.2 °F 63% 29.90 in 10.0 mi SE 11.5 mph - N/A   Clear
10:11 PM 23.0 °F 12.4 °F 12.2 °F 63% 29.89 in 10.0 mi SE 10.4 mph - N/A   Clear
10:30 PM 23.0 °F 10.6 °F 12.2 °F 63% 29.89 in 10.0 mi SE 13.8 mph - N/A   Clear
10:50 PM 21.2 °F 8.9 °F 12.2 °F 68% 29.88 in 10.0 mi SE 12.7 mph 17.3 mph N/A   Clear
11:10 PM 21.2 °F 10.1 °F 12.2 °F 68% 29.86 in 10.0 mi SE 10.4 mph - N/A   Scattered Clouds
11:31 PM 21.2 °F 10.1 °F 12.2 °F 68% 29.85 in 10.0 mi SE 10.4 mph - N/A   Scattered Clouds
11:51 PM 21.2 °F 8.9 °F 14.0 °F 74% 29.85 in 10.0 mi SE 12.7 mph - N/A   Mostly Cloudy